Location: Observatoire
(46.1952°N, 5.3391°E)
Time: 03:43:45
(UTC+01:00)

Explorer 7 - Pass Details

Date: 27 February 2026
Orbit: 430 x 541 km, 50.2° (Epoch: 13 March)

Event Time Altitude Azimuth Distance (km) Brightness Sun altitude
Rises 11:57:59 0° 225° (SW) 2,383 10.4 34.3°
Reaches altitude 10° 12:00:09 10° 217° (SW) 1,521 9.7 34.4°
Maximum altitude 12:03:22 40° 147° (SSE) 645 9.1 34.5°
Drops below altitude 10° 12:06:39 10° 76° (ENE) 1,549 9.2 34.7°
Sets 12:08:52 0° 69° (ENE) 2,434 10.0 34.7°
